Location: Phoenix
(33.4480°N, 112.0730°W)
Time: 09:12:54
(UTC-07:00)

Cosmos 1470 Rocket - Visible Passes

Search period start: 22 September 2014 00:00
Search period end: 02 October 2014 00:00
Orbit: 605 x 636 km, 82.5° (Epoch: 22 September)

Date Brightness Start Highest point End Pass type
(mag) Time Alt. Az. Time Alt. Az. Time Alt. Az.
22 Sep 4.0 20:27:10 10° NNW 20:31:32 60° W 20:31:42 60° WSW visible
23 Sep 5.0 19:08:18 10° NNE 19:11:23 18° ENE 19:13:02 15° ESE visible
23 Sep 5.4 20:45:26 10° NNW 20:49:16 29° W 20:50:17 26° WSW visible
24 Sep 4.1 19:25:18 10° NNE 19:29:23 35° E 19:31:47 21° SE visible
24 Sep 6.4 21:04:25 10° NW 21:06:54 15° W 21:09:03 11° WSW visible
25 Sep 3.4 19:42:50 10° N 19:47:17 74° E 19:50:50 16° SSE visible
26 Sep 4.3 20:00:45 10° NNW 20:05:05 53° W 20:09:26 10° S visible
27 Sep 4.9 18:41:39 10° NNE 18:44:59 20° ENE 18:48:19 10° SE visible
27 Sep 5.7 20:19:06 10° NNW 20:22:48 26° W 20:26:31 10° SW visible
28 Sep 4.0 18:58:46 10° N 19:02:58 40° E 19:07:10 10° SSE visible
28 Sep 6.7 20:38:18 10° WNW 20:40:26 13° W 20:42:34 10° WSW visible
29 Sep 3.5 19:16:22 10° N 19:20:51 83° E 19:25:19 10° S visible
30 Sep 4.6 19:34:21 10° NNW 19:38:38 47° W 19:42:55 10° SSW visible
01 Oct 6.0 19:52:47 10° NW 19:56:20 24° W 19:59:54 10° SW visible
